This is the latest recevied weather packets stored in our database for station/object NC4M. If no packets are shown the sender has not sent any weather packets the latest 10 day(s).
| Time | Temp. | Humidity | Pressure | Rain* | Wind** | Luminosity | Snow |
|---|---|---|---|---|---|---|---|
| 1788551061 | 35.56° C | 43% | 1015.5 hPa | 0 mm | - | 116 W/m² | - |
| 1788550756 | 36.11° C | 41% | 1015.4 hPa | 0 mm | - | 108 W/m² | - |
| 1788550452 | 36.11° C | 43% | 1015.7 hPa | 0 mm | - | 116 W/m² | - |
| 1788550147 | 36.11° C | 43% | 1015.5 hPa | 0 mm | - | 369 W/m² | - |
| 1788549842 | 36.11° C | 42% | 1015.7 hPa | 0 mm | - | 157 W/m² | - |
| 1788549544 | 36.11° C | 44% | 1015.8 hPa | 0 mm | - | 135 W/m² | - |
| 1788549235 | 35.56° C | 44% | 1015.8 hPa | 0 mm | - | 195 W/m² | - |
| 1788548931 | 36.11° C | 43% | 1015.8 hPa | 0 mm | - | 85 W/m² | - |
| 1788548627 | 36.67° C | 42% | 1016 hPa | 0 mm | - | 180 W/m² | - |
| 1788548323 | 36.67° C | 43% | 1016.2 hPa | 0 mm | - | 99 W/m² | - |
| 1788548018 | 36.67° C | 45% | 1016.1 hPa | 0 mm | - | 77 W/m² | - |
| 1788547718 | 36.11° C | 42% | 1016.1 hPa | 0 mm | - | 74 W/m² | - |
| 1788547413 | 37.22° C | 40% | 1016.1 hPa | 0 mm | - | 79 W/m² | - |
| 1788547109 | 36.67° C | 42% | 1016.2 hPa | 0 mm | - | 88 W/m² | - |
| 1788546809 | 36.67° C | 42% | 1016 hPa | 0 mm | - | 105 W/m² | - |
| 1788546504 | 37.22° C | 41% | 1016.2 hPa | 0 mm | - | 549 W/m² | - |
| 1788546199 | 37.22° C | 40% | 1016.2 hPa | 0 mm | - | 881 W/m² | - |
| 1788545895 | 36.67° C | 42% | 1016.2 hPa | 0 mm | - | 860 W/m² | - |
| 1788545594 | 36.67° C | 42% | 1016.4 hPa | 0 mm | - | 879 W/m² | - |
| 1788545290 | 36.67° C | 44% | 1016.5 hPa | 0 mm | - | 872 W/m² | - |
| 1788544985 | 36.11° C | 45% | 1016.7 hPa | 0 mm | - | 883 W/m² | - |
| 1788544684 | 35.56° C | 45% | 1016.5 hPa | 0 mm | - | 876 W/m² | - |
| 1788544382 | 35.56° C | 46% | 1016.6 hPa | 0 mm | - | 896 W/m² | - |
| 1788544078 | 36.67° C | 45% | 1017 hPa | 0 mm | - | 902 W/m² | - |
| 1788543774 | 36.11° C | 42% | 1016.8 hPa | 0 mm | - | 855 W/m² | - |
* Rain latest hour (hover to see other rain measurements)
** Current wind speed in m/s (hover to see current wind gust speed)